Regional Weather Roundup
Issued by NWS Wilmington, NC

Home | Current Version | Previous Version | Text Only | Print | Product List | Glossary On
Versions: 1 2 3 4 5 6 7 8 9 10 11 12 13 14 15 16 17 18 19 20 21 22 23 24 25 26 27
000
ASUS42 KILM 251313
RWRILM
RWRILM
REGIONAL HOURLY WEATHER ROUNDUP
NATIONAL WEATHER SERVICE WILMINGTON NC
900 AM EDT WED MAY 25 2016

NOTE: "FAIR" INDICATES FEW OR NO CLOUDS BELOW 12,000 FEET WITH NO
SIGNIFICANT WEATHER AND/OR OBSTRUCTIONS TO VISIBILITY.

...............WFO WILMINGTON COUNTY WARNING AREA...............

......COASTAL NC AND SC COUNTIES......

CITY           SKY/WX    TMP DP  RH WIND       PRES   REMARKS
WILMINGTON     SUNNY     74  63  68 W8        30.25R
N MYRTLE BEACH SUNNY     76  63  64 SW6       30.25R
MYRTLE BEACH   SUNNY     75  61  60 SW6       30.27R

......INLAND NC AND SC COUNTIES.......

CITY           SKY/WX    TMP DP  RH WIND       PRES   REMARKS
LUMBERTON      SUNNY     73  65  75 SW5       30.23R
ELIZABETHTOWN  SUNNY     73  64  73 W5        30.24R
WHITEVILLE     SUNNY     73  65  74 SW7       30.24R
FLORENCE       SUNNY     72  64  76 W6        30.24R
DARLINGTON     CLOUDY    69  65  86 W3        30.25R
KINGSTREE      FAIR      72  63  73 SW5       30.24R
HARTSVILLE     PTSUNNY   66  63  88 SW3       30.24R
BENNETTSVILLE  PTSUNNY  N/A N/A N/A CALM      30.24R
CONWAY         FAIR      73  66  78 SW5       30.25R HAZE
GEORGETOWN     FAIR      75  64  69 SW5       30.26R
MARION         FAIR      70  64  83 W6        30.24R

....................REST OF NORTH CAROLINA......................

.........EASTERN NC.........

CITY           SKY/WX    TMP DP  RH WIND       PRES   REMARKS
CAPE HATTERAS  SUNNY     73  63  70 W9        30.22R
JACKSONVILLE   SUNNY     74  65  73 W6        30.25R
MOREHEAD CITY  SUNNY     73  62  68 NW7       30.24R
KENANSVILLE    SUNNY     71  62  73 CALM      30.25R
NEW BERN       SUNNY     73  62  68 W6        30.24R
ELIZABETH CITY SUNNY     74  59  59 W8G17     30.20R

.........CENTRAL NC.........

CITY           SKY/WX    TMP DP  RH WIND       PRES   REMARKS
RALEIGH DURHAM MOSUNNY   70  59  68 SW6       30.23R
ROCKY MOUNT    SUNNY     71  62  73 SW6       30.22S
ROANOKE RAPIDS NOT AVBL
FAYETTEVILLE   MOSUNNY   71  63  75 SW3       30.23R
HOFFMAN        MOSUNNY   72  63  74 W5        30.23R

.........WESTERN NC.........

CITY           SKY/WX    TMP DP  RH WIND       PRES   REMARKS
CHARLOTTE      MOSUNNY   70  56  61 CALM      30.24R
GREENSBORO     MOSUNNY   71  57  61 CALM      30.23R
HICKORY        NOT AVBL
BOONE          NOT AVBL
ASHEVILLE      NOT AVBL

.....................REST OF SOUTH CAROLINA.....................

.........EASTERN SC.........

CITY           SKY/WX    TMP DP  RH WIND       PRES   REMARKS
CHARLESTON     MOSUNNY   77  66  68 SW7       30.25R
BEAUFORT MCAS  CLOUDY    74  67  78 SW6       30.25R
HILTON HEAD    MOSUNNY   75  68  78 CALM      30.27R

.........CENTRAL SC.........

CITY           SKY/WX    TMP DP  RH WIND       PRES   REMARKS
COLUMBIA       MOSUNNY   75  63  66 VRB5      30.23R
ORANGEBURG     SUNNY     71  66  84 SW6       30.25R
SUMTER SHAW    MOSUNNY   72  63  72 W8        30.22R

.........WESTERN SC.........

CITY           SKY/WX    TMP DP  RH WIND       PRES   REMARKS
GREENVILLE     NOT AVBL
ROCK HILL      SUNNY     69  59  70 SW5       30.25R
ANDERSON       SUNNY     68  59  73 CALM      30.24R
CLEMSON        NOT AVBL
GREENWOOD      SUNNY     71  59  65 CALM      30.26R


...................COASTAL AND OFFSHORE REPORTS..................

................LOCAL PIERS AND NC RESERVE................


STATION/POSITION TIME  SKY/WX   TEMP    WIND        PRES    VSBY
                                AIR SEA DIR/SP/G
                 (UTC)          (F)     (DEG/KT/KT) (MB)    (MI)
JOHNY MRCER PIER 1200            71 73  260/  5/  7 1022.8R
NC RESRV MASNBRO NOT AVBL
OCEAN CREST PIER NOT AVBL
SPRINGMAID  PIER 1200            72 73  180/  4/  4 1023.6R


................COASTAL AND OFFSHORE BUOYS................


STATION/POSITION TIME  SKY/WX   TEMP    WIND        PRES    VSBY
                                AIR SEA DIR/SP/G
                 (UTC)          (F)     (DEG/KT/KT) (MB)    (MI)
DIMNDSHOAL 41025 1250            67 67  260/  6/  8 1023.6R
WVE H/P(F/S)=  3/ 5 SWL H/P/D(F/S/D)=  2/200/ 5

CAPE LOOKOUT     1300            72     290/  7/  8 1023.7R
ONSLOW BAY 41036 NOT AVBL
ONSLOW BAY 41064 1208            73 73  280/  8/ 12 1024.0R
ONSLOW BAY 41159 1225               73                N/A
WVE H/P(F/S)=  2/ 9

5SE WRITBC 41038 1208            71 71  280/  6/  8 1024.5R
MASNBO INL 41110 1206               71                N/A
WVE H/P(F/S)=  2/ 9

WILM HARBR 41108 1226               72                N/A
WVE H/P(F/S)=  2/ 3

27SE WRITB 41037 1208            74 72  280/  6/ 10 1023.8R
FRYING PAN 41013 1200            75 76  270/  8/ 10 1023.6R
SUNST NRSH 41024 1208            71 72  280/  6/  8 1023.6R
CAPRS NRSH 41029 1208            75 74  180/  4/  6 1023.7R
EDISTO     41004 1250            76 76  250/  2/  2 1024.2R
WVE H/P(F/S)=  2/ 8 SWL H/P/D(F/S/D)=  2/ 8



..........OFFSHORE BUOYS BEYOND 100 NM OFFSHORE...........
.....IN A TRIANGLE---HAT TO BERMUDA TO BAHAMAS TO HAT.....


STATION/POSITION TIME  SKY/WX   TEMP    WIND        PRES    VSBY
                                AIR SEA DIR/SP/G
                 (UTC)          (F)     (DEG/KT/KT) (MB)    (MI)
150E HAT   41001 NOT AVBL
W BERMUDA  41048 1250            73 75  360/ 12/ 14 1023.5R
WVE H/P(F/S)=  4/ 8 SWL H/P/D(F/S/D)=  3/330/ 8

ATLANTIC S 41049 1250            77 78  140/ 12/ 14 1023.1R
WVE H/P(F/S)=  5/ 6 SWL H/P/D(F/S/D)=  3/140/ 6

E BAHAMAS  41046 1200            79 81  140/  2/  4 1019.0R
NE BAHAMAS 41047 1200            77 79   20/  6/ 10 1020.8R
120E CANVRL41010 1220            76 78   70/  8/ 10 1022.9R

END




USA.gov is the U.S. government's official web portal to all federal, state and local government web resources and services.